Regional Weather Roundup
Issued by NWS Jackson, KY

Home | Current Version | Previous Version | Text Only | Print | Product List | Glossary Off
Versions: 1 2 3 4 5 6 7 8 9 10 11 12 13 14 15 16 17 18 19 20 21 22 23 24 25 26 27 28 29 30 31 32 33 34 35 36 37 38 39 40 41 42 43 44 45 46 47 48

000
ASUS43 KJKL 021610
RWRJKL

EAST KENTUCKY HOURLY WEATHER ROUNDUP
NATIONAL WEATHER SERVICE JACKSON KY
1100 AM EST MON MAR 02 2015

NOTE: "FAIR" INDICATES FEW OR NO CLOUDS BELOW 12,000 FEET WITH
NO SIGNIFICANT WEATHER AND/OR OBSTRUCTIONS TO VISIBILITY.

* THESE REPORTS ARE NOT UNDER NWS QUALITY CONTROL AND MAY NOT
  REPORT WEATHER SUCH AS PRECIPITATION AND FOG.

KYZ079-080-083-085-087-088-110-112-115-119-120-021700
...EASTERN KENTUCKY...

CITY           SKY/WX    TMP DP  RH WIND       PRES   REMARKS
JACKSON        MOSUNNY   35  24  64 VRB3      30.46F
LONDON         MOSUNNY   36  26  67 VRB6      30.46F WCI  31
SOMERSET*      SUNNY     34  27  75 NE5       30.50F WCI  30
MONTICELLO*    MOSUNNY   37  29  73 NE10      30.52S WCI  30
BLACK MTN*       N/A     25  25 100 N8          N/A  WCI  16
PIKEVILLE APT* PTSUNNY   32  23  69 N7        30.45F WCI  26
BIG SANDY*     MOSUNNY   36  24  62 CALM      30.46F
MOREHEAD APT*  SUNNY     30  19  64 NW6       30.53R WCI  24
$$

KYZ035-036-041-042-044-050-067-078-099-021700
...CENTRAL KENTUCKY...

CITY           SKY/WX    TMP DP  RH WIND       PRES   REMARKS
MT STERLING*   SUNNY     32  21  64 E5        30.52S WCI  27
FLEMING/MASON* SUNNY     27  18  69 CALM      30.53S
DANVILLE*      MOSUNNY   30  21  69 NE3       30.52S
RICHMOND*      MOSUNNY   32  19  59 NE6       30.50S WCI  26
LEXINGTON      SUNNY     30  20  66 N7        30.51F WCI  23
FRANKFORT      SUNNY     31  17  56 NE5       30.52S WCI  26
$$

KYZ091>093-OHZ055-061-077-WVZ005-015-034-035-042-021700
...SOUTHERN OHIO/WEST VIRGINIA...

CITY           SKY/WX    TMP DP  RH WIND       PRES   REMARKS
COVINGTON      PTSUNNY   29  15  56 N8        30.52S WCI  21
COLUMBUS       PTSUNNY   23  14  68 NW3       30.50S
DAYTON         PTSUNNY   23  14  68 CALM      30.52R
WILMINGTON     SUNNY     25  13  60 NW6       30.51S WCI  18
HUNTINGTON     MOSUNNY   31  19  61 VRB3      30.50R
CHARLESTON     MOSUNNY   34  18  52 W8        30.46F WCI  27
PINEVILLE*     PTSUNNY   38  29  68 MISG      30.46S
BECKLEY        MOSUNNY   31  21  66 NW7       30.36S WCI  24
BLUEFIELD      PTSUNNY   34  25  69 NW14G22   30.35S WCI  25
$$

VAZ002-007-008-TNZ017-027-036-066-071-021700
...SOUTHWEST VIRGINIA/EAST TENNESSEE...

CITY           SKY/WX    TMP DP  RH WIND       PRES   REMARKS
WISE*          CLOUDY    32  30  93 N12       30.39S WCI  23
JONESVILLE*    CLOUDY    37  32  81 N7        30.45S WCI  32
ABINGDON*      MOSUNNY   39  33  78 N12       30.37S WCI  31
BRISTOL        CLOUDY    40  34  79 N5        30.39F
KNOXVILLE      CLOUDY    40  35  83 NE10      30.43R WCI  33
OAK RIDGE      PTSUNNY   43  35  73 N8        30.45R
CROSSVILLE     CLOUDY    34  31  88 NE9       30.41R WCI  27
NASHVILLE      PTSUNNY   37  30  75 NE8       30.49S WCI  31
$$

...KEY TO REMARKS...
VSB - VISIBILITY IN MILES
WCI - WIND CHILL INDEX
HX  - HEAT INDEX

$$


USA.gov is the U.S. government's official web portal to all federal, state and local government web resources and services.